Showing default

KOMPASS, 27002

Orbit data source: Space-Track

KOMPASS, 27002 is a Commonwealth of Independent States-origin payload satellite in SSO that was launched on Mon, 10 Dec 2001 UTC via a ZENIT-2 launch vehicle from the Tyuratam Missile And Space Complex (TTMTR). Payload-class satellites include a variety of spacecraft equipped with specific instruments for various scientific and technological missions. These include communications satellites like Starlink; space stations such as the ISS; scientific satellites like the Hubble; Earth observation satellites from companies like Planet Labs, Umbra, and HawkEye 360; GPS; miniature CubeSats for education and research; and military/defense satellites.

Loading next visibility...
Identifier
27002, 2001-056B
Orbit
SSO
Country
Flag of CISCIS
Related business
Manufacturer
Makeev
Mission
Civil Science
Bus & Motor
SHTIL, Unknown motor
Mass
65 kg wet, 65 kg dry
Launch date (UTC)
2001-12-10 (24 years ago)
Launch vehicle
ZENIT-2
Launch site
Tyuratam Missile And Space Complex (TTMTR)
Object type
Payload
Rocket body
Debris
Shape & HBR
Trunc Poly + 4 Pan, 0.4 m
Radar Cross Section
0.451 m², Medium (>0.1 m² and < 1m²)

Expand to show TLE details & history
Last TLE update: 1 day ago

TLE from 1 day ago
0 KOMPASS
1 27002U 01056B   25260.07110559  .00000026  00000-0  81468-4 0  9995
2 27002  99.7747  65.1325 0020170 113.8426   4.5258 13.70599917188825
Epoch: 2025-09-17T01:42Z
TLE epoch observation values (Epoch: 2025-09-17T01:42:23.522Z)
Latitude
60.20566°
Longitude
-119.30126°
Altitude
992.75 km
Speed
7.368 km/s
True Right ascension
17h 30m 11s
True Declination
60° 03' 43"
Sunlit
Object was in daylight at epoch
Visualization orbit readout
Latitude
Unknown
Longitude
Unknown
Altitude
Unknown
Speed
Unknown
Apparent Right ascension
Unknown
Apparent Declination
Unknown
Sunlit
N/A
Visualization observer readout
Local Sidereal Time
18:29:46
Azimuth
Unknown
Elevation
Unknown
Doppler factor
Unknown
Orbital elements
Apogee altitude
1,009.567 km
Perigee altitude
979.825 km
Semi-major axis
7,372.833 km
Eccentricity
0.00202
Inclination
99.7747°
RAAN
65.1325°
Arg. of periapsis
113.8426°
True anomaly
4.54408°
Mean anomaly
4.5258°
Eccentric anomaly
4.53494°
Mean motion
3.4284 °/min
Orbital period
105.01 mins
BSTAR
0.000081468
Loading maneuver chart data...
Computing Atmospheric mass density...
Loading historical data...
Loading historical data...
Loading historical data...
Loading historical data...
Loading historical data...
Loading historical data...
Loading historical data...

Documentation

Showing up to 5 results
|